[[{"header":{"parameterUnit":"m.s-1","parameterCategory":2,"la1":30.2991,"la2":30.254,"lo1":-89.0895,"lo2":-89.0444,"dy":0.0017,"dx":0.0017,"nx":28,"ny":28,"refTime":"2023-09-23T03:00:00:Z","depth":"0","parameterNumber":2,"parameterNumberName":"U-component_of_CURRENTS"},"data":[0,0,0,0,0,0,0,0,0,0,0,0,0,0,0,0,0,0,0,0,0,0,0,0,0,0,0,0,0,0,0,0,0,0,0,0,0,0,0,0,0,0,0,0,0,0,0,0,0,0,0,0,0,0,0,0,0,0,-0.3005,-0.3005,0,-0.2997,-0.2996,-0.2996,-0.2918,-0.2917,-0.2915,-0.2914,-0.2784,-0.2783,-0.2781,0,0,0,0,0,0,0,0,0,0,0,0,0,-0.2887,-0.289,-0.3005,-0.3005,-0.3005,-0.2997,-0.2996,-0.2996,-0.2919,-0.2917,-0.2915,-0.2913,-0.2785,-0.2783,-0.278,0,0,0,0,0,0,0,0,0,0,0,0,0,-0.2911,-0.2891,-0.3005,-0.2968,-0.2965,-0.2997,-0.2996,-0.2996,-0.2919,-0.2917,-0.2914,-0.2912,-0.2786,-0.2783,-0.278,-0.2809,0,0,-0.2771,-0.277,0,0,0,0,0,0,0,0,-0.291,-0.2915,-0.2974,-0.2971,-0.2968,-0.2959,-0.2908,-0.2929,-0.292,-0.2933,-0.2914,-0.2911,-0.2836,-0.2829,-0.2829,-0.2803,-0.2798,-0.2771,-0.2769,-0.2768,-0.2767,0,0,0,0,0,0,0,-0.2909,-0.2915,-0.2998,-0.2974,-0.2971,-0.293,-0.2931,-0.2911,-0.2892,-0.2931,-0.2927,-0.2933,-0.2833,-0.2832,-0.2825,-0.2796,-0.2771,-0.2768,-0.2766,-0.2765,-0.2807,-0.2809,0,0,0,0,0,0,-0.2924,-0.2914,-0.2998,-0.2998,-0.2937,-0.2935,-0.2936,-0.2961,-0.2895,-0.2885,-0.2935,-0.2929,-0.2838,-0.2829,-0.282,-0.2828,-0.2768,-0.2765,-0.2763,-0.2804,-0.2807,-0.281,0,0,0,0,0,0,-0.2922,-0.2933,-0.2998,-0.2957,-0.2963,-0.294,-0.2969,-0.2963,-0.2953,-0.29,-0.2886,-0.2931,-0.2836,-0.2824,-0.2803,-0.2822,-0.2764,-0.2761,-0.2801,-0.2805,-0.2809,-0.2857,0,0,0,0,0,0,-0.2919,-0.2933,-0.2953,-0.2959,-0.2966,-0.3033,-0.2972,-0.2964,-0.2963,-0.2955,-0.2893,-0.2878,-0.2833,-0.2808,-0.28,-0.2817,-0.2759,-0.2797,-0.2803,-0.2808,-0.2852,-0.2862,-0.2871,0,0,0,0,0,-0.2915,-0.2962,-0.2954,-0.2964,-0.2997,-0.3035,-0.3035,-0.3006,-0.2965,-0.2983,-0.2929,-0.288,-0.2837,-0.2807,-0.2797,-0.2814,-0.2794,-0.2801,-0.2807,-0.2847,-0.286,-0.2871,0,0,0,0,0,0,-0.2921,-0.2959,-0.295,-0.3005,-0.3024,-0.3023,-0.3039,-0.3015,-0.299,-0.2968,-0.2901,-0.2886,-0.2893,-0.2857,-0.2825,-0.2852,-0.2815,-0.282,-0.2849,-0.2861,-0.287,-0.2816,-0.2756,0,0,0,0,0,-0.2936,-0.2978,-0.3003,-0.3044,-0.3059,-0.3047,-0.3055,-0.3039,-0.3021,-0.3007,-0.2966,-0.293,-0.2919,-0.2887,-0.2888,-0.2876,-0.2799,-0.2892,-0.2902,-0.291,-0.2866,-0.2747,-0.2739,-0.2832,-0.2832,-0.2832,0,0,-0.2944,-0.2975,-0.2993,-0.3048,-0.3054,-0.3076,-0.3045,-0.3069,-0.306,-0.2997,-0.2975,-0.2974,-0.2936,-0.294,-0.2937,-0.2896,-0.2864,-0.2918,-0.2924,-0.2875,-0.2752,-0.2742,-0.2732,-0.2836,-0.2835,-0.2835,0,0,-0.2993,-0.3017,-0.3067,-0.309,-0.312,-0.3107,-0.3116,-0.3125,-0.3102,-0.3099,-0.3061,-0.3044,-0.3034,-0.299,-0.2968,-0.3028,-0.2944,-0.3071,-0.3032,-0.292,-0.2908,-0.2897,-0.2854,-0.2838,-0.3043,-0.3044,-0.3044,0,-0.2991,-0.3047,-0.3086,-0.3137,-0.3124,-0.312,-0.3131,-0.3134,-0.3126,-0.3076,-0.3099,-0.3041,-0.304,-0.297,-0.3024,-0.3039,-0.2988,-0.2982,-0.2922,-0.2909,-0.2897,-0.2855,-0.2836,-0.3047,-0.3046,-0.3046,-0.3046,0,-0.3081,-0.3101,-0.3133,-0.3173,-0.3185,-0.3192,-0.3194,-0.3181,-0.3148,-0.3117,-0.3071,-0.3068,-0.2999,-0.3048,-0.3058,-0.2989,-0.2994,-0.2967,-0.2871,-0.2888,-0.2847,-0.2827,-0.3051,-0.305,-0.3049,-0.3048,0,0,-0.3082,-0.3167,-0.3167,-0.3132,-0.3177,-0.3162,-0.3168,-0.3112,-0.3038,-0.3059,-0.2956,-0.2995,-0.2966,-0.2944,-0.2955,-0.2888,-0.283,-0.2905,-0.2898,-0.2826,-0.2624,-0.258,-0.2554,-0.2783,-0.2778,-0.2775,-0.2654,0,-0.3097,-0.3138,-0.3198,-0.316,-0.3133,-0.3127,-0.3102,-0.306,-0.3025,-0.2949,-0.2913,-0.2861,-0.2932,-0.2905,-0.2853,-0.2846,-0.2769,-0.2867,-0.2649,-0.2643,-0.2566,-0.2524,-0.2411,-0.2287,-0.2633,-0.263,-0.2627,0,-0.3133,-0.3122,-0.3108,-0.3034,-0.3026,-0.3025,-0.2893,-0.2886,-0.2815,-0.2783,-0.272,-0.2714,-0.2661,-0.2715,-0.261,-0.2673,-0.2645,-0.2631,-0.2623,-0.2526,-0.2555,-0.2316,-0.2236,-0.223,-0.2595,-0.2598,-0.26,0,-0.3002,-0.3028,-0.2971,-0.2963,-0.293,-0.2892,-0.2869,-0.2813,-0.2755,-0.2677,-0.2627,-0.2548,-0.2519,-0.2448,-0.2485,-0.2526,-0.2366,-0.2393,-0.2305,-0.2305,-0.213,-0.2121,-0.1965,-0.2243,-0.2244,-0.2244,-0.2244,0,-0.2932,-0.2882,-0.2901,-0.2847,-0.2726,-0.2777,-0.2657,-0.2625,-0.2589,-0.25,-0.253,-0.2454,-0.2451,-0.2395,-0.2401,-0.23,-0.2272,-0.2262,-0.2234,-0.216,-0.2155,-0.208,-0.213,-0.224,-0.2241,-0.2241,-0.2242,0,-0.2799,-0.2835,-0.273,-0.2679,-0.266,-0.2573,-0.2545,-0.2465,-0.2471,-0.2373,-0.235,-0.2355,-0.2289,-0.2282,-0.2191,-0.2182,-0.2047,-0.2053,-0.2016,-0.1984,-0.1894,-0.1954,-0.1751,-0.1703,-0.1906,-0.1904,-0.1902,0,-0.2743,-0.2679,-0.2573,-0.2501,-0.2486,-0.2403,-0.2343,-0.2365,-0.2323,-0.2302,-0.2246,-0.2203,-0.2135,-0.2021,-0.1967,-0.1878,-0.1922,-0.1745,-0.1774,-0.1828,-0.1874,-0.1934,-0.1914,-0.1605,-0.1601,-0.1597,-0.1594,0,-0.2564,-0.2535,-0.2423,-0.228,-0.2209,-0.2134,-0.21,-0.2066,-0.21,-0.2065,-0.2028,-0.199,-0.1905,-0.1781,-0.1707,-0.165,-0.1701,-0.167,-0.168,-0.1566,-0.1656,-0.1618,-0.1826,-0.1563,-0.1566,-0.1568,-0.157,-0.1571,-0.2412,-0.2279,-0.214,-0.1997,-0.1936,-0.1884,-0.1802,-0.1831,-0.1778,-0.1738,-0.1807,-0.1711,-0.165,-0.152,-0.1474,-0.1368,-0.1454,-0.1327,-0.1384,-0.1435,-0.1392,-0.1573,-0.131,-0.1311,-0.1313,-0.1314,-0.1315,0,-0.2175,-0.2043,-0.1879,-0.1714,-0.1616,-0.166,-0.162,-0.1557,-0.1505,-0.1488,-0.1457,-0.1374,-0.1284,-0.1256,-0.1181,-0.1115,-0.1108,-0.1094,-0.1137,-0.1122,-0.1203,-0.1194,-0.0945,-0.0945,-0.0945,-0.0945,-0.0945,-0.0945,-0.202,-0.1792,-0.1681,-0.1423,-0.1359,-0.1217,-0.1185,-0.1158,-0.1118,-0.1017,-0.096,-0.0917,-0.1006,-0.1142,-0.1088,-0.1026,-0.1033,-0.0971,-0.1041,-0.1114,-0.1141,-0.1166,-0.1165,-0.0914,-0.0914,-0.0883,-0.0883,-0.0883]},{"header":{"parameterUnit":"m.s-1","parameterCategory":2,"la1":30.2991,"la2":30.254,"lo1":-89.0895,"lo2":-89.0444,"dy":0.0017,"dx":0.0017,"nx":28,"ny":28,"refTime":"2023-09-23T03:00:00:Z","depth":"0","parameterNumber":3,"parameterNumberName":"V-component_of_CURRENTS"},"data":[0,0,0,0,0,0,0,0,0,0,0,0,0,0,0,0,0,0,0,0,0,0,0,0,0,0,0,0,0,0,0,0,0,0,0,0,0,0,0,0,0,0,0,0,0,0,0,0,0,0,0,0,0,0,0,0,0,0,-0.0265,-0.0263,0,-0.0121,-0.012,-0.0118,-0.0034,-0.0034,-0.0033,-0.0033,0.0124,0.0127,0.0131,0,0,0,0,0,0,0,0,0,0,0,0,0,-0.0429,-0.0427,-0.0265,-0.0263,-0.0261,-0.0122,-0.012,-0.0118,-0.0034,-0.0034,-0.0033,-0.0033,0.0122,0.0127,0.0131,0,0,0,0,0,0,0,0,0,0,0,0,0,-0.033,-0.0426,-0.0265,-0.0202,-0.0195,-0.0122,-0.012,-0.0117,-0.0034,-0.0034,-0.0033,-0.0033,0.0121,0.0126,0.0132,0.0155,0,0,0.0149,0.0152,0,0,0,0,0,0,0,0,-0.0336,-0.0324,-0.0213,-0.0206,-0.0198,-0.0095,-0.012,-0.0025,-0.0035,-0.0096,-0.0033,-0.0032,0.0052,0.0063,0.0088,0.0162,0.0169,0.015,0.0153,0.0156,0.0157,0,0,0,0,0,0,0,-0.0343,-0.0329,-0.0209,-0.0211,-0.0202,-0.0168,-0.0154,-0.0102,-0.0028,-0.0091,-0.0084,-0.0067,0.0056,0.0082,0.0092,0.0171,0.015,0.0155,0.0158,0.016,0.0264,0.0263,0,0,0,0,0,0,-0.0361,-0.0336,-0.0213,-0.0204,-0.0266,-0.0166,-0.015,-0.0129,-0.0028,-0.0012,-0.0068,-0.0064,0.0072,0.0085,0.0098,0.0116,0.0156,0.0161,0.0164,0.0264,0.0263,0.0263,0,0,0,0,0,0,-0.0365,-0.0352,-0.0219,-0.0267,-0.0247,-0.0164,-0.0141,-0.0126,-0.01,-0.0011,0.0005,-0.0057,0.0073,0.009,0.0137,0.0123,0.0164,0.0169,0.0265,0.0264,0.0263,0.0162,0,0,0,0,0,0,-0.0371,-0.0354,-0.0352,-0.0268,-0.0245,-0.0187,-0.0141,-0.0124,-0.009,-0.0084,0.0004,0.002,0.0075,0.0128,0.0142,0.0132,0.0173,0.0266,0.0265,0.0263,0.0166,0.0158,0.0151,0,0,0,0,0,-0.0377,-0.0378,-0.0352,-0.0338,-0.0243,-0.0187,-0.0173,-0.0112,-0.0091,-0.0086,-0.0028,0.0017,0.013,0.0132,0.0149,0.014,0.0267,0.0265,0.0264,0.017,0.016,0.0151,0,0,0,0,0,0,-0.0453,-0.0367,-0.0337,-0.0313,-0.026,-0.0173,-0.0164,-0.0121,-0.007,-0.0067,0.0014,0.0033,0.0068,0.0117,0.0117,0.0165,0.0203,0.0205,0.0126,0.0117,0.0109,0.0079,0.0178,0,0,0,0,0,-0.0469,-0.0445,-0.0362,-0.0347,-0.0324,-0.0247,-0.0219,-0.0177,-0.0117,-0.0093,-0.0031,0.0029,0.0076,0.0105,0.0156,0.0186,0.0235,0.0189,0.0181,0.0174,0.016,0.0225,0.0221,0.0258,0.0258,0.0258,0,0,-0.0496,-0.0446,-0.0433,-0.0362,-0.0316,-0.0294,-0.0229,-0.0194,-0.0178,-0.0085,-0.0053,0.0005,0.0077,0.0109,0.0128,0.0148,0.0189,0.0172,0.0165,0.0155,0.0223,0.0219,0.0216,0.0257,0.0257,0.0257,0,0,-0.0549,-0.0494,-0.0498,-0.0454,-0.039,-0.0337,-0.0333,-0.0251,-0.0219,-0.0176,-0.0113,-0.0071,0.0014,0.0055,0.0088,0.0066,0.0144,0.0087,0.0026,0.0089,0.0086,0.0085,0.0139,0.0143,0.0084,0.0084,0.0084,0,-0.059,-0.0571,-0.0494,-0.0485,-0.0457,-0.0365,-0.0367,-0.032,-0.0236,-0.0212,-0.0182,-0.0068,-0.0016,0.0023,0.0009,0.0047,0.0098,0.0055,0.0078,0.0077,0.0077,0.0133,0.0139,0.0079,0.0079,0.008,0.008,0,-0.064,-0.0625,-0.0625,-0.0578,-0.0541,-0.0525,-0.0447,-0.0413,-0.0359,-0.0303,-0.0248,-0.017,-0.0102,-0.0083,-0.0045,-0.0021,0.002,0.0059,0.0098,0.0067,0.0129,0.0136,0.0071,0.0073,0.0075,0.0076,0,0,-0.0732,-0.0674,-0.0673,-0.0661,-0.0586,-0.0555,-0.0535,-0.0479,-0.0451,-0.0379,-0.0341,-0.028,-0.0224,-0.0186,-0.0124,-0.0082,-0.0047,-0.0023,-0.0017,0.0023,0.0093,0.0132,0.0145,0.0006,0.0007,0.0007,0.0134,0,-0.0799,-0.0803,-0.0754,-0.0755,-0.0746,-0.0659,-0.0635,-0.057,-0.0502,-0.044,-0.0362,-0.03,-0.0264,-0.0225,-0.0183,-0.0067,-0.003,-0.0085,0.0123,0.0129,0.0162,0.0154,0.0196,0.0314,0.0142,0.0144,0.0145,0,-0.087,-0.0852,-0.087,-0.0817,-0.0805,-0.0794,-0.0721,-0.0689,-0.0589,-0.0528,-0.046,-0.0375,-0.0307,-0.0266,-0.0113,-0.0142,-0.0051,0.0032,0.004,0.0115,0.0182,0.032,0.0336,0.0467,0.0158,0.0157,0.0156,0,-0.0953,-0.0935,-0.0947,-0.0929,-0.0857,-0.0853,-0.0818,-0.0726,-0.0679,-0.0586,-0.0526,-0.0426,-0.0349,-0.0236,-0.0078,-0.0085,0.0106,0.0129,0.0245,0.0249,0.0344,0.0355,0.0504,0.022,0.022,0.0219,0.0219,0,-0.1036,-0.1046,-0.0988,-0.0987,-0.0984,-0.092,-0.0898,-0.0841,-0.0747,-0.0679,-0.0583,-0.0497,-0.0335,-0.0199,-0.008,0.0112,0.0111,0.0229,0.0284,0.0309,0.0315,0.0481,0.0534,0.0224,0.0223,0.0222,0.0221,0,-0.1131,-0.1099,-0.1099,-0.104,-0.1024,-0.1024,-0.0946,-0.091,-0.0824,-0.0734,-0.0702,-0.053,-0.0346,-0.0181,0.0033,0.0129,0.0388,0.0358,0.0369,0.0421,0.063,0.0675,0.0865,0.0951,0.0502,0.0503,0.0505,0,-0.1188,-0.1196,-0.1135,-0.112,-0.1102,-0.1079,-0.1042,-0.0959,-0.0906,-0.074,-0.0691,-0.0504,-0.0336,-0.002,0.0188,0.0411,0.0494,0.0556,0.0533,0.0644,0.0736,0.0752,0.081,0.0626,0.0628,0.063,0.0631,0,-0.1273,-0.1241,-0.1212,-0.1172,-0.1149,-0.1118,-0.107,-0.1035,-0.0914,-0.0809,-0.0634,-0.0494,-0.0181,0.0112,0.038,0.0501,0.0661,0.06,0.073,0.0848,0.0864,0.0972,0.053,0.0648,0.0646,0.0645,0.0644,0.0643,-0.132,-0.13,-0.1233,-0.1196,-0.1171,-0.1137,-0.1104,-0.101,-0.0906,-0.0666,-0.0572,-0.0234,0.0054,0.0457,0.0598,0.0888,0.0832,0.0953,0.1,0.1006,0.1079,0.0657,0.0823,0.0823,0.0822,0.0822,0.0821,0,-0.1357,-0.1297,-0.1252,-0.1196,-0.1169,-0.1151,-0.1083,-0.1003,-0.0852,-0.0531,-0.0304,0.0199,0.0513,0.0808,0.1137,0.128,0.1309,0.1336,0.138,0.1423,0.1079,0.1075,0.1285,0.1284,0.1284,0.1284,0.1284,0.1284,-0.1357,-0.1309,-0.1245,-0.1179,-0.115,-0.1096,-0.1052,-0.0906,-0.0666,-0.0156,0.0294,0.0595,0.0913,0.1318,0.1621,0.1641,0.1787,0.1751,0.1827,0.1597,0.1564,0.1533,0.1542,0.1847,0.1848,0.2161,0.2164,0.2167]}],[{"header":{"parameterUnit":"m.s-1","parameterCategory":2,"la1":30.2991,"la2":30.254,"lo1":-89.0895,"lo2":-89.0444,"dy":0.0017,"dx":0.0017,"nx":28,"ny":28,"refTime":"2023-09-23T03:00:00:Z","depth":"2","parameterNumber":2,"parameterNumberName":"U-component_of_CURRENTS"},"data":[0,0,0,0,0,0,0,0,0,0,0,0,0,0,0,0,0,0,0,0,0,0,0,0,0,0,0,0,0,0,0,0,0,0,0,0,0,0,0,0,0,0,0,0,0,0,0,0,0,0,0,0,0,0,0,0,0,0,-0.1751,-0.1753,0,-0.188,-0.1881,-0.1881,-0.191,-0.191,-0.191,-0.191,-0.1912,-0.1912,-0.1912,0,0,0,0,0,0,0,0,0,0,0,0,0,-0.1679,-0.1678,-0.1751,-0.1753,-0.1756,-0.188,-0.1881,-0.1882,-0.191,-0.191,-0.191,-0.191,-0.1912,-0.1912,-0.1912,0,0,0,0,0,0,0,0,0,0,0,0,0,-0.174,-0.1678,-0.175,-0.1792,-0.1798,-0.188,-0.1881,-0.1882,-0.191,-0.191,-0.191,-0.191,-0.1912,-0.1912,-0.1912,-0.1914,0,0,-0.1912,-0.1912,0,0,0,0,0,0,0,0,-0.1736,-0.1741,-0.1783,-0.1789,-0.1796,-0.1887,-0.1857,-0.1889,-0.191,-0.1858,-0.191,-0.191,-0.1898,-0.1899,-0.1912,-0.1914,-0.1914,-0.1912,-0.1912,-0.1912,-0.1912,0,0,0,0,0,0,0,-0.1732,-0.1737,-0.1792,-0.1786,-0.1794,-0.1857,-0.1863,-0.1864,-0.1867,-0.1862,-0.1867,-0.1897,-0.1899,-0.1912,-0.1912,-0.1914,-0.1912,-0.1912,-0.1912,-0.1912,-0.1952,-0.1953,0,0,0,0,0,0,-0.1727,-0.1732,-0.1788,-0.1797,-0.1776,-0.1858,-0.1865,-0.185,-0.187,-0.1876,-0.1897,-0.1898,-0.1912,-0.1912,-0.1912,-0.195,-0.1912,-0.1912,-0.1912,-0.1951,-0.1952,-0.1953,0,0,0,0,0,0,-0.1724,-0.1729,-0.1783,-0.1778,-0.1791,-0.1859,-0.1843,-0.1853,-0.1872,-0.1899,-0.1901,-0.1908,-0.1912,-0.1912,-0.1942,-0.1949,-0.1912,-0.1913,-0.195,-0.1951,-0.1953,-0.2004,0,0,0,0,0,0,-0.172,-0.1726,-0.1746,-0.1776,-0.1791,-0.1829,-0.1845,-0.1856,-0.1895,-0.1897,-0.1909,-0.1909,-0.1912,-0.1942,-0.1942,-0.1949,-0.1913,-0.1949,-0.1951,-0.1952,-0.2001,-0.2007,-0.2012,0,0,0,0,0,-0.1717,-0.173,-0.1744,-0.1755,-0.1803,-0.183,-0.1842,-0.1887,-0.1896,-0.1902,-0.1932,-0.1909,-0.1952,-0.1944,-0.1943,-0.195,-0.1948,-0.195,-0.1952,-0.1999,-0.2006,-0.2012,0,0,0,0,0,0,-0.1719,-0.1737,-0.1752,-0.1774,-0.1803,-0.1838,-0.1878,-0.1888,-0.1917,-0.1933,-0.1931,-0.1934,-0.1955,-0.195,-0.194,-0.1967,-0.1942,-0.1944,-0.1977,-0.1984,-0.1989,-0.201,-0.1913,0,0,0,0,0,-0.1728,-0.1733,-0.1762,-0.1783,-0.18,-0.1836,-0.1866,-0.1887,-0.1913,-0.1926,-0.194,-0.1956,-0.1963,-0.1974,-0.1979,-0.2002,-0.1978,-0.2003,-0.2008,-0.2013,-0.203,-0.2008,-0.2013,-0.1961,-0.1961,-0.1961,0,0,-0.1736,-0.1754,-0.1759,-0.1786,-0.1817,-0.1852,-0.185,-0.1892,-0.1928,-0.1921,-0.1976,-0.1972,-0.1972,-0.2001,-0.2009,-0.2001,-0.2013,-0.2016,-0.202,-0.2035,-0.2011,-0.2016,-0.2021,-0.1962,-0.1962,-0.1962,0,0,-0.1747,-0.1766,-0.1774,-0.1807,-0.1862,-0.1884,-0.1891,-0.1929,-0.1952,-0.2002,-0.2001,-0.2015,-0.2036,-0.2043,-0.2045,-0.2084,-0.2037,-0.2072,-0.2125,-0.2104,-0.2108,-0.2111,-0.2073,-0.2072,-0.2082,-0.2082,-0.2082,0,-0.177,-0.178,-0.1787,-0.182,-0.1866,-0.1891,-0.1925,-0.1957,-0.2005,-0.2023,-0.2028,-0.2061,-0.206,-0.2081,-0.2107,-0.2096,-0.207,-0.2099,-0.211,-0.2113,-0.2116,-0.2076,-0.2075,-0.2085,-0.2084,-0.2084,-0.2084,0,-0.1784,-0.182,-0.1834,-0.1876,-0.1914,-0.1956,-0.1998,-0.2033,-0.2065,-0.2091,-0.2121,-0.2131,-0.2144,-0.2142,-0.2148,-0.2161,-0.2131,-0.2112,-0.2092,-0.2124,-0.208,-0.2078,-0.2089,-0.2088,-0.2087,-0.2086,0,0,-0.1739,-0.1828,-0.183,-0.1878,-0.1956,-0.1978,-0.2043,-0.2091,-0.212,-0.2168,-0.2191,-0.2227,-0.2218,-0.2221,-0.2207,-0.2211,-0.2207,-0.2184,-0.2182,-0.2145,-0.2146,-0.2066,-0.2056,-0.2186,-0.2187,-0.2187,-0.2102,0,-0.1752,-0.1828,-0.1859,-0.1938,-0.199,-0.2043,-0.2093,-0.2145,-0.2179,-0.2207,-0.2223,-0.2234,-0.2248,-0.2241,-0.2254,-0.2209,-0.2207,-0.2231,-0.2123,-0.212,-0.2044,-0.2053,-0.1896,-0.1803,-0.21,-0.2099,-0.2099,0,-0.1739,-0.1805,-0.189,-0.1987,-0.2006,-0.2049,-0.2122,-0.2168,-0.2216,-0.2238,-0.2263,-0.2258,-0.2275,-0.227,-0.2243,-0.2255,-0.2219,-0.2191,-0.2185,-0.2097,-0.2037,-0.1822,-0.1787,-0.2095,-0.2095,-0.2096,-0.2096,0,-0.1709,-0.1808,-0.1883,-0.1929,-0.2044,-0.2073,-0.2113,-0.2173,-0.2198,-0.2238,-0.2244,-0.2267,-0.2252,-0.2237,-0.2202,-0.2215,-0.2151,-0.2144,-0.2039,-0.2031,-0.1871,-0.1849,-0.2125,-0.2125,-0.2125,-0.2125,-0.2125,0,-0.1717,-0.177,-0.1876,-0.1931,-0.198,-0.2061,-0.2098,-0.2137,-0.2183,-0.2188,-0.2242,-0.2229,-0.2246,-0.2212,-0.219,-0.2101,-0.2133,-0.205,-0.2008,-0.1882,-0.1863,-0.2102,-0.2101,-0.2122,-0.2123,-0.2123,-0.2124,0,-0.1672,-0.1765,-0.1837,-0.1949,-0.1976,-0.1999,-0.2063,-0.2079,-0.2143,-0.2143,-0.2148,-0.2186,-0.2138,-0.2133,-0.2081,-0.2056,-0.1992,-0.1951,-0.1799,-0.1742,-0.1891,-0.1893,-0.1824,-0.182,-0.1817,-0.1815,-0.1813,0,-0.1649,-0.1694,-0.1805,-0.1831,-0.1877,-0.193,-0.1954,-0.2036,-0.2048,-0.2096,-0.2075,-0.206,-0.201,-0.1924,-0.1862,-0.1783,-0.1879,-0.1616,-0.1627,-0.1896,-0.1862,-0.1869,-0.1875,-0.1423,-0.1418,-0.1414,-0.141,0,-0.1578,-0.1622,-0.1689,-0.1741,-0.1774,-0.1805,-0.1845,-0.1857,-0.1936,-0.1941,-0.1917,-0.1883,-0.1805,-0.1655,-0.1581,-0.1525,-0.1622,-0.1528,-0.1825,-0.1535,-0.1514,-0.1483,-0.1502,-0.1373,-0.1377,-0.138,-0.1382,-0.1383,-0.1479,-0.1499,-0.1577,-0.1611,-0.1649,-0.1654,-0.1629,-0.168,-0.1678,-0.1648,-0.1706,-0.16,-0.1578,-0.1364,-0.129,-0.1238,-0.1354,-0.1311,-0.1325,-0.1344,-0.1324,-0.1301,-0.1115,-0.1117,-0.1119,-0.112,-0.1122,0,-0.1328,-0.1392,-0.1427,-0.1472,-0.1448,-0.1511,-0.1525,-0.1475,-0.1422,-0.1423,-0.1377,-0.1203,-0.1098,-0.1086,-0.0939,-0.0924,-0.0932,-0.0898,-0.0912,-0.0947,-0.0979,-0.0944,-0.0632,-0.0631,-0.063,-0.0629,0,0,-0.1265,-0.1265,-0.1308,-0.1252,-0.1269,-0.1183,-0.1158,-0.1112,-0.1086,-0.1001,-0.0943,-0.0997,-0.1021,-0.0822,-0.0782,-0.0682,-0.0808,-0.0641,-0.1026,-0.1074,-0.1105,-0.12,-0.1182,0,0,0,0,0]},{"header":{"parameterUnit":"m.s-1","parameterCategory":2,"la1":30.2991,"la2":30.254,"lo1":-89.0895,"lo2":-89.0444,"dy":0.0017,"dx":0.0017,"nx":28,"ny":28,"refTime":"2023-09-23T03:00:00:Z","depth":"2","parameterNumber":3,"parameterNumberName":"V-component_of_CURRENTS"},"data":[0,0,0,0,0,0,0,0,0,0,0,0,0,0,0,0,0,0,0,0,0,0,0,0,0,0,0,0,0,0,0,0,0,0,0,0,0,0,0,0,0,0,0,0,0,0,0,0,0,0,0,0,0,0,0,0,0,0,-0.0299,-0.0298,0,-0.022,-0.0219,-0.0218,-0.0165,-0.0165,-0.0165,-0.0164,-0.0047,-0.0045,-0.0042,0,0,0,0,0,0,0,0,0,0,0,0,0,-0.0328,-0.0329,-0.0299,-0.0298,-0.0297,-0.022,-0.0219,-0.0217,-0.0165,-0.0165,-0.0164,-0.0164,-0.0048,-0.0045,-0.0042,0,0,0,0,0,0,0,0,0,0,0,0,0,-0.0289,-0.0329,-0.0299,-0.0262,-0.0258,-0.022,-0.0219,-0.0217,-0.0165,-0.0165,-0.0164,-0.0164,-0.0049,-0.0045,-0.0041,-0.0026,0,0,-0.0028,-0.0026,0,0,0,0,0,0,0,0,-0.0292,-0.0288,-0.0268,-0.0264,-0.0259,-0.0202,-0.0186,-0.0151,-0.0166,-0.02,-0.0164,-0.0164,-0.0096,-0.0088,-0.0075,-0.002,-0.0015,-0.0028,-0.0025,-0.0024,-0.0022,0,0,0,0,0,0,0,-0.0295,-0.0291,-0.0268,-0.0267,-0.0262,-0.0222,-0.0217,-0.0179,-0.0151,-0.0197,-0.0193,-0.0185,-0.0093,-0.0079,-0.0071,-0.0013,-0.0028,-0.0024,-0.0022,-0.002,0.0085,0.0085,0,0,0,0,0,0,-0.0309,-0.0294,-0.027,-0.0265,-0.0275,-0.0223,-0.0216,-0.0221,-0.0152,-0.0142,-0.0185,-0.0182,-0.0086,-0.0076,-0.0067,-0.0029,-0.0024,-0.002,-0.0017,0.0085,0.0085,0.0085,0,0,0,0,0,0,-0.031,-0.0308,-0.0273,-0.0277,-0.027,-0.0223,-0.0228,-0.022,-0.0203,-0.0144,-0.0132,-0.0178,-0.0085,-0.0073,-0.002,-0.0024,-0.0018,-0.0014,0.0084,0.0085,0.0085,0.0038,0,0,0,0,0,0,-0.0312,-0.031,-0.0313,-0.0278,-0.027,-0.0255,-0.0228,-0.0218,-0.0199,-0.0195,-0.0133,-0.0122,-0.0084,-0.0026,-0.0015,-0.0018,-0.0011,0.0084,0.0084,0.0085,0.0039,0.0037,0.0035,0,0,0,0,0,-0.0313,-0.0326,-0.0314,-0.0311,-0.0279,-0.0255,-0.0248,-0.0212,-0.0199,-0.0195,-0.0142,-0.0124,-0.0016,-0.0022,-0.001,-0.0012,0.0084,0.0084,0.0085,0.004,0.0037,0.0035,0,0,0,0,0,0,-0.0345,-0.0321,-0.0307,-0.0313,-0.0287,-0.0247,-0.0238,-0.0217,-0.0174,-0.0166,-0.0112,-0.0097,-0.0055,-0.0024,-0.0033,0.002,0.0033,0.0036,-0.0005,-0.0007,-0.0009,-0.0023,-0.0007,0,0,0,0,0,-0.0354,-0.0356,-0.0324,-0.0329,-0.0318,-0.0279,-0.0264,-0.0242,-0.0201,-0.0183,-0.0138,-0.0089,-0.0044,-0.0018,0.0024,0.0057,0.0088,0.0062,0.0059,0.0057,0.0055,0.01,0.0102,0.0087,0.0087,0.0087,0,0,-0.0369,-0.0355,-0.0357,-0.0335,-0.0312,-0.03,-0.0269,-0.0252,-0.0237,-0.0176,-0.014,-0.0094,-0.0036,0.0003,0.0023,0.0029,0.0079,0.0058,0.0055,0.0054,0.0101,0.0103,0.0104,0.0088,0.0088,0.0087,0,0,-0.0399,-0.0388,-0.0396,-0.0375,-0.0343,-0.0318,-0.0316,-0.0275,-0.0251,-0.0211,-0.0163,-0.0116,-0.0054,-0.0009,0.0021,0.0032,0.0064,0.0037,0.0017,0.0061,0.0062,0.0064,0.0105,0.0111,0.0036,0.0036,0.0036,0,-0.0416,-0.0424,-0.0394,-0.039,-0.0375,-0.033,-0.033,-0.0299,-0.0245,-0.0223,-0.0206,-0.0106,-0.0058,-0.0004,0.0002,0.0026,0.0054,0.002,0.0057,0.0059,0.0061,0.0104,0.0111,0.0034,0.0034,0.0034,0.0034,0,-0.0444,-0.0447,-0.045,-0.0431,-0.041,-0.0405,-0.0358,-0.0334,-0.0301,-0.0265,-0.0208,-0.0136,-0.0079,-0.0059,-0.0022,0.0017,0.0033,0.0046,0.0059,0.006,0.0105,0.0113,0.0031,0.0031,0.0032,0.0033,0,0,-0.0487,-0.0475,-0.0474,-0.0474,-0.0432,-0.0421,-0.0393,-0.0354,-0.0337,-0.0278,-0.0247,-0.0166,-0.0132,-0.0095,-0.0045,-0.0002,0.0043,0.0024,0.0027,0.0057,0.0138,0.0163,0.0174,0.006,0.0061,0.0062,0.0162,0,-0.0517,-0.0536,-0.0509,-0.0515,-0.052,-0.0467,-0.0445,-0.04,-0.0353,-0.0311,-0.0234,-0.0186,-0.0145,-0.0118,-0.0069,0.0018,0.0061,0.0014,0.014,0.0144,0.016,0.0184,0.0165,0.0254,0.0171,0.0172,0.0173,0,-0.0547,-0.0557,-0.0582,-0.0564,-0.0558,-0.0551,-0.0507,-0.048,-0.0405,-0.0366,-0.0305,-0.0243,-0.0161,-0.0134,0.0005,-0.0029,0.0046,0.0112,0.0117,0.0161,0.0184,0.0242,0.0272,0.0187,0.0186,0.0185,0.0184,0,-0.06,-0.06,-0.0628,-0.0623,-0.0598,-0.0593,-0.0568,-0.0504,-0.0477,-0.0405,-0.0375,-0.0275,-0.0215,-0.0115,0.0023,0.0013,0.0176,0.018,0.0274,0.0277,0.0297,0.03,0.0271,0.0271,0.0271,0.027,0.027,0,-0.0648,-0.0666,-0.0662,-0.068,-0.0696,-0.065,-0.0648,-0.0605,-0.0541,-0.0501,-0.0416,-0.0355,-0.0208,-0.0092,0.0016,0.0176,0.0172,0.0278,0.0308,0.0281,0.028,0.0249,0.0245,0.0274,0.0273,0.0273,0.0272,0,-0.071,-0.0713,-0.0741,-0.0733,-0.0731,-0.0742,-0.0705,-0.0693,-0.0629,-0.0573,-0.055,-0.0405,-0.0248,-0.0098,0.0088,0.0175,0.0317,0.0372,0.033,0.0353,0.0388,0.038,0.0483,0.0485,0.0486,0.0487,0.0488,0,-0.0744,-0.077,-0.0788,-0.0808,-0.0812,-0.0818,-0.0815,-0.0751,-0.0721,-0.0591,-0.0559,-0.0398,-0.026,0.0012,0.0195,0.039,0.0378,0.0469,0.0448,0.0393,0.0411,0.0401,0.0392,0.046,0.0461,0.0461,0.0462,0,-0.0798,-0.0809,-0.0839,-0.0882,-0.0899,-0.0902,-0.0882,-0.0867,-0.077,-0.0691,-0.0541,-0.0419,-0.0153,0.0079,0.0314,0.0415,0.0433,0.0487,0.0458,0.0403,0.0378,0.0393,0.0384,0.0467,0.0467,0.0466,0.0466,0.0466,-0.0827,-0.0868,-0.0907,-0.0945,-0.0962,-0.0959,-0.0948,-0.089,-0.0814,-0.0653,-0.0534,-0.0317,-0.0116,0.0243,0.0398,0.0527,0.0521,0.0545,0.0541,0.0536,0.0509,0.0488,0.0592,0.0593,0.0593,0.0593,0.0593,0,-0.0849,-0.0904,-0.0953,-0.0995,-0.1012,-0.1003,-0.0966,-0.0911,-0.0798,-0.064,-0.0463,-0.0194,0.0059,0.0252,0.0477,0.0604,0.0578,0.0604,0.0549,0.0543,0.0538,0.0508,0.0594,0.0594,0.0594,0.0595,0,0,-0.0864,-0.0933,-0.0968,-0.102,-0.1037,-0.1021,-0.0989,-0.0875,-0.0748,-0.0552,-0.038,-0.0166,0.0074,0.0236,0.0392,0.05,0.0476,0.0496,0.0481,0.039,0.0383,0.0493,0.0439,0,0,0,0,0]}],[{"header":{"parameterUnit":"m.s-1","parameterCategory":2,"la1":30.2991,"la2":30.254,"lo1":-89.0895,"lo2":-89.0444,"dy":0.0017,"dx":0.0017,"nx":28,"ny":28,"refTime":"2023-09-23T03:00:00:Z","depth":"4","parameterNumber":2,"parameterNumberName":"U-component_of_CURRENTS"},"data":[0,0,0,0,0,0,0,0,0,0,0,0,0,0,0,0,0,0,0,0,0,0,0,0,0,0,0,0,0,0,0,0,0,0,0,0,0,0,0,0,0,0,0,0,0,0,0,0,0,0,0,0,0,0,0,0,0,0,-0.1142,-0.1143,0,-0.1204,-0.1205,-0.1206,-0.1249,-0.1249,-0.125,-0.125,-0.1293,-0.1294,-0.1295,0,0,0,0,0,0,0,0,0,0,0,0,0,-0.1086,-0.1087,-0.1142,-0.1143,-0.1144,-0.1204,-0.1205,-0.1206,-0.1249,-0.1249,-0.125,-0.125,-0.1293,-0.1294,-0.1295,0,0,0,0,0,0,0,0,0,0,0,0,0,-0.1125,-0.1087,-0.1142,-0.1173,-0.1177,-0.1204,-0.1205,-0.1206,-0.1249,-0.1249,-0.125,-0.125,-0.1293,-0.1294,-0.1295,-0.129,0,0,-0.1299,-0.1299,0,0,0,0,0,0,0,0,-0.1122,-0.1126,-0.1168,-0.1171,-0.1175,-0.122,-0.1201,-0.1233,-0.1248,-0.122,-0.125,-0.1251,-0.1267,-0.127,-0.128,-0.1292,-0.1294,-0.1299,-0.1299,-0.13,-0.13,0,0,0,0,0,0,0,-0.112,-0.1124,-0.1166,-0.1169,-0.1173,-0.1193,-0.1198,-0.1208,-0.1239,-0.1223,-0.1226,-0.1234,-0.1269,-0.1279,-0.1281,-0.1295,-0.1299,-0.13,-0.13,-0.1301,-0.1368,-0.1369,0,0,0,0,0,0,-0.1112,-0.1122,-0.1164,-0.1168,-0.1151,-0.1193,-0.12,-0.1204,-0.1239,-0.1245,-0.1234,-0.1236,-0.1276,-0.128,-0.1283,-0.1351,-0.13,-0.1301,-0.1302,-0.1367,-0.1368,-0.137,0,0,0,0,0,0,-0.111,-0.1115,-0.1162,-0.1147,-0.1155,-0.1193,-0.1198,-0.1205,-0.1238,-0.1248,-0.1254,-0.1262,-0.1277,-0.1281,-0.1313,-0.135,-0.1301,-0.1303,-0.1366,-0.1368,-0.1369,-0.1441,0,0,0,0,0,0,-0.1108,-0.1114,-0.1124,-0.1146,-0.1155,-0.1193,-0.1198,-0.1206,-0.1241,-0.1245,-0.1273,-0.1277,-0.1278,-0.1311,-0.1314,-0.1351,-0.1303,-0.1364,-0.1367,-0.1369,-0.1437,-0.1445,-0.1451,0,0,0,0,0,-0.1106,-0.1114,-0.1124,-0.1129,-0.1164,-0.1194,-0.1201,-0.123,-0.1242,-0.1261,-0.1281,-0.1277,-0.1326,-0.1313,-0.1316,-0.1354,-0.1363,-0.1366,-0.1368,-0.1434,-0.1443,-0.1451,0,0,0,0,0,0,-0.1093,-0.112,-0.1131,-0.1146,-0.1176,-0.1202,-0.1222,-0.1242,-0.1274,-0.1284,-0.129,-0.1295,-0.1339,-0.1331,-0.1316,-0.1378,-0.1345,-0.1348,-0.1393,-0.1402,-0.1409,-0.1422,-0.1304,0,0,0,0,0,-0.1094,-0.1111,-0.1138,-0.1154,-0.1168,-0.1199,-0.1219,-0.1243,-0.1269,-0.1285,-0.1304,-0.1323,-0.1347,-0.1363,-0.1377,-0.1408,-0.1394,-0.1433,-0.144,-0.1446,-0.1459,-0.1479,-0.1489,-0.1378,-0.1378,-0.1378,0,0,-0.1095,-0.1112,-0.1122,-0.1154,-0.1177,-0.1213,-0.1213,-0.1252,-0.1294,-0.1283,-0.1342,-0.1351,-0.136,-0.1402,-0.142,-0.1403,-0.1464,-0.145,-0.1455,-0.1464,-0.1483,-0.1494,-0.1503,-0.1379,-0.1379,-0.1379,0,0,-0.1104,-0.1119,-0.1139,-0.1168,-0.1211,-0.1234,-0.125,-0.1291,-0.1322,-0.1372,-0.1379,-0.1411,-0.1442,-0.1462,-0.1474,-0.1527,-0.1502,-0.1529,-0.1579,-0.1599,-0.1608,-0.1617,-0.1586,-0.1591,-0.1532,-0.1532,-0.1532,0,-0.1105,-0.1137,-0.1151,-0.1184,-0.1218,-0.1247,-0.1289,-0.1324,-0.1375,-0.1404,-0.1402,-0.1471,-0.1476,-0.1534,-0.1553,-0.1546,-0.1533,-0.1548,-0.1609,-0.1617,-0.1625,-0.1591,-0.1596,-0.1536,-0.1536,-0.1535,-0.1535,0,-0.1127,-0.117,-0.1185,-0.1239,-0.1275,-0.1316,-0.1364,-0.1407,-0.1445,-0.1479,-0.1548,-0.1561,-0.1599,-0.1608,-0.16,-0.1659,-0.1622,-0.1617,-0.159,-0.1641,-0.1601,-0.1605,-0.1541,-0.154,-0.1539,-0.1538,0,0,-0.1091,-0.1183,-0.1194,-0.1241,-0.1313,-0.1345,-0.1416,-0.1485,-0.1536,-0.1587,-0.1647,-0.1698,-0.1703,-0.1716,-0.1713,-0.1732,-0.1761,-0.17,-0.1699,-0.1672,-0.1771,-0.1631,-0.1621,-0.1769,-0.1771,-0.1773,-0.1712,0,-0.1111,-0.1189,-0.123,-0.1321,-0.1369,-0.1425,-0.149,-0.1558,-0.1606,-0.1665,-0.1702,-0.1752,-0.1745,-0.1762,-0.1789,-0.1766,-0.1779,-0.1775,-0.1723,-0.1721,-0.1595,-0.1624,-0.1778,-0.1715,-0.1716,-0.1716,-0.1717,0,-0.1117,-0.1178,-0.1267,-0.1382,-0.1406,-0.1464,-0.1566,-0.1628,-0.1711,-0.1747,-0.1805,-0.182,-0.1863,-0.1845,-0.1857,-0.1854,-0.1825,-0.1805,-0.1802,-0.1654,-0.159,-0.1659,-0.1723,-0.1722,-0.1722,-0.1721,-0.1721,0,-0.1087,-0.1203,-0.1282,-0.132,-0.1445,-0.1499,-0.1564,-0.1655,-0.1707,-0.1793,-0.1821,-0.1882,-0.1894,-0.1901,-0.1855,-0.1863,-0.1839,-0.184,-0.1688,-0.1676,-0.1788,-0.178,-0.1858,-0.1858,-0.1858,-0.1858,-0.1858,0,-0.1086,-0.115,-0.128,-0.1323,-0.1418,-0.1504,-0.1595,-0.1662,-0.1747,-0.1785,-0.1857,-0.1865,-0.1911,-0.1894,-0.1867,-0.1768,-0.1848,-0.1697,-0.1662,-0.1813,-0.1809,-0.1788,-0.1781,-0.1856,-0.1856,-0.1857,-0.1857,0,-0.1036,-0.1126,-0.1219,-0.136,-0.1409,-0.1472,-0.1599,-0.1647,-0.1739,-0.1782,-0.1805,-0.1855,-0.1817,-0.1826,-0.1802,-0.1749,-0.169,-0.1637,-0.1763,-0.1736,-0.1509,-0.1507,-0.1469,-0.1463,-0.1459,-0.1455,-0.1452,0,-0.1008,-0.106,-0.1221,-0.1277,-0.1343,-0.145,-0.151,-0.1629,-0.1662,-0.174,-0.1734,-0.1738,-0.1746,-0.1595,-0.1627,-0.1561,-0.1548,-0.1514,-0.1555,-0.1505,-0.1475,-0.1479,-0.1483,-0.1445,-0.1444,-0.1443,-0.1442,0,-0.0951,-0.1023,-0.1099,-0.1219,-0.13,-0.1376,-0.1462,-0.1479,-0.1581,-0.1672,-0.161,-0.1576,-0.152,-0.1485,-0.1438,-0.1401,-0.1542,-0.1468,-0.1478,-0.1516,-0.1476,-0.1452,-0.146,-0.1427,-0.1429,-0.143,-0.1431,0,-0.089,-0.0933,-0.1046,-0.114,-0.1233,-0.1266,-0.1333,-0.1355,-0.1403,-0.1488,-0.1447,-0.1447,-0.1483,-0.1397,-0.1352,-0.1303,-0.1296,-0.1275,-0.1295,-0.1312,-0.129,-0.1218,-0.1059,0,0,0,0,0,-0.0811,-0.0866,-0.0956,-0.105,-0.1131,-0.1176,-0.1281,-0.1341,-0.1431,-0.1346,-0.1397,-0.1332,-0.1257,-0.1261,-0.1176,-0.1288,-0.1309,-0.1186,-0.1299,-0.1342,-0.136,-0.135,0,0,0,0,0,0,-0.0767,-0.0846,-0.0921,-0.0947,-0.0976,-0.1042,-0.1094,-0.1159,-0.1129,-0.1218,-0.1179,-0.1242,-0.1187,-0.1262,-0.1136,-0.114,-0.1185,-0.1199,-0.1195,-0.1332,-0.1348,-0.1363,-0.1358,0,0,0,0,0]},{"header":{"parameterUnit":"m.s-1","parameterCategory":2,"la1":30.2991,"la2":30.254,"lo1":-89.0895,"lo2":-89.0444,"dy":0.0017,"dx":0.0017,"nx":28,"ny":28,"refTime":"2023-09-23T03:00:00:Z","depth":"4","parameterNumber":3,"parameterNumberName":"V-component_of_CURRENTS"},"data":[0,0,0,0,0,0,0,0,0,0,0,0,0,0,0,0,0,0,0,0,0,0,0,0,0,0,0,0,0,0,0,0,0,0,0,0,0,0,0,0,0,0,0,0,0,0,0,0,0,0,0,0,0,0,0,0,0,0,-0.0219,-0.0218,0,-0.0182,-0.0182,-0.0181,-0.0154,-0.0153,-0.0153,-0.0153,-0.0096,-0.0095,-0.0094,0,0,0,0,0,0,0,0,0,0,0,0,0,-0.0212,-0.0212,-0.0219,-0.0218,-0.0218,-0.0182,-0.0182,-0.0181,-0.0154,-0.0153,-0.0153,-0.0153,-0.0097,-0.0095,-0.0094,0,0,0,0,0,0,0,0,0,0,0,0,0,-0.02,-0.0213,-0.0219,-0.0199,-0.0197,-0.0182,-0.0182,-0.0181,-0.0154,-0.0153,-0.0153,-0.0153,-0.0097,-0.0095,-0.0094,-0.0092,0,0,-0.0088,-0.0087,0,0,0,0,0,0,0,0,-0.02,-0.02,-0.0203,-0.0201,-0.0198,-0.0171,-0.0158,-0.015,-0.0154,-0.0171,-0.0153,-0.0152,-0.0119,-0.0116,-0.0111,-0.0089,-0.0087,-0.0088,-0.0087,-0.0086,-0.0085,0,0,0,0,0,0,0,-0.0201,-0.0201,-0.0205,-0.0202,-0.0199,-0.0174,-0.0172,-0.0156,-0.0149,-0.017,-0.0167,-0.0162,-0.0118,-0.0113,-0.011,-0.0086,-0.0088,-0.0086,-0.0085,-0.0084,-0.0044,-0.0044,0,0,0,0,0,0,-0.0208,-0.0202,-0.0206,-0.0204,-0.0197,-0.0174,-0.0173,-0.0181,-0.0149,-0.0144,-0.0163,-0.0161,-0.0116,-0.0112,-0.0107,-0.0084,-0.0086,-0.0084,-0.0083,-0.0044,-0.0044,-0.0044,0,0,0,0,0,0,-0.0208,-0.0209,-0.0208,-0.0201,-0.0198,-0.0175,-0.0185,-0.0181,-0.0176,-0.0144,-0.0138,-0.0162,-0.0116,-0.011,-0.0092,-0.0082,-0.0083,-0.0082,-0.0044,-0.0044,-0.0044,-0.0049,0,0,0,0,0,0,-0.0209,-0.021,-0.0218,-0.0202,-0.0199,-0.0204,-0.0185,-0.018,-0.0173,-0.0171,-0.0142,-0.0136,-0.0115,-0.0095,-0.009,-0.008,-0.008,-0.0044,-0.0044,-0.0044,-0.0048,-0.0049,-0.0049,0,0,0,0,0,-0.0209,-0.0224,-0.0219,-0.0219,-0.0211,-0.0204,-0.0201,-0.0182,-0.0174,-0.0176,-0.0152,-0.0137,-0.0092,-0.0094,-0.0088,-0.0076,-0.0044,-0.0044,-0.0044,-0.0048,-0.0049,-0.0049,0,0,0,0,0,0,-0.0225,-0.0222,-0.0216,-0.023,-0.0219,-0.0199,-0.0198,-0.0187,-0.0171,-0.0168,-0.0138,-0.013,-0.0109,-0.0098,-0.0101,-0.0066,-0.0065,-0.0064,-0.007,-0.0071,-0.0071,-0.0069,-0.0079,0,0,0,0,0,-0.0233,-0.0244,-0.0232,-0.0242,-0.0239,-0.022,-0.0214,-0.0203,-0.0186,-0.0179,-0.0158,-0.0134,-0.0106,-0.0093,-0.0073,-0.0058,-0.0034,-0.0047,-0.0048,-0.0048,-0.0043,0.0002,0.0007,-0.0044,-0.0044,-0.0044,0,0,-0.0243,-0.0241,-0.0248,-0.0246,-0.0236,-0.0233,-0.0216,-0.0212,-0.0203,-0.0175,-0.016,-0.0136,-0.0103,-0.008,-0.007,-0.0068,-0.0024,-0.0048,-0.0048,-0.0043,0.0003,0.0008,0.0012,-0.0044,-0.0044,-0.0044,0,0,-0.0264,-0.0267,-0.028,-0.0273,-0.0261,-0.0248,-0.0249,-0.0233,-0.0219,-0.0204,-0.0174,-0.0142,-0.0117,-0.0079,-0.0058,-0.0051,-0.0027,-0.0052,-0.0049,-0.0005,0.0,0.0005,0.0033,0.0041,-0.0052,-0.0052,-0.0052,0,-0.0274,-0.0291,-0.0281,-0.0285,-0.0278,-0.0256,-0.026,-0.0243,-0.0222,-0.0205,-0.0202,-0.0139,-0.011,-0.0059,-0.0053,-0.0048,-0.003,-0.0048,-0.0004,0.0001,0.0006,0.0035,0.0043,-0.0052,-0.0052,-0.0052,-0.0052,0,-0.0298,-0.031,-0.0316,-0.0314,-0.0304,-0.0307,-0.0279,-0.0268,-0.0249,-0.0225,-0.0182,-0.0139,-0.01,-0.0083,-0.0063,-0.0013,-0.0015,-0.0009,-0.0001,0.0011,0.004,0.0049,-0.0052,-0.0052,-0.0052,-0.0052,0,0,-0.0324,-0.0333,-0.0336,-0.0339,-0.032,-0.0317,-0.0296,-0.0269,-0.0253,-0.0219,-0.0189,-0.0126,-0.0103,-0.0078,-0.0045,-0.0,0.0053,0.0006,0.0009,0.0038,0.0137,0.0116,0.0123,0.0064,0.0065,0.0067,0.0141,0,-0.0345,-0.0368,-0.0358,-0.0369,-0.0376,-0.0344,-0.0328,-0.0296,-0.0263,-0.0231,-0.0165,-0.013,-0.0101,-0.0083,-0.003,0.003,0.0076,0.0031,0.0118,0.0121,0.0104,0.0133,0.0072,0.0147,0.015,0.0151,0.0152,0,-0.0369,-0.0381,-0.0404,-0.04,-0.0398,-0.0398,-0.0363,-0.0346,-0.0285,-0.0257,-0.0201,-0.0157,-0.0081,-0.0065,0.0055,0.0021,0.0079,0.0128,0.0132,0.0121,0.0116,0.0135,0.0168,0.0167,0.0165,0.0164,0.0163,0,-0.0397,-0.041,-0.0433,-0.0432,-0.0422,-0.0421,-0.0409,-0.0359,-0.034,-0.0278,-0.0256,-0.0164,-0.0119,-0.0031,0.0071,0.0062,0.0198,0.0198,0.0237,0.0236,0.0235,0.0229,0.0289,0.0289,0.0289,0.0289,0.0288,0,-0.0422,-0.044,-0.0455,-0.0467,-0.0487,-0.0459,-0.0461,-0.0432,-0.0384,-0.0354,-0.0281,-0.0232,-0.0108,-0.0016,0.007,0.0178,0.0199,0.0248,0.026,0.0228,0.0221,0.024,0.0234,0.0291,0.0291,0.029,0.029,0,-0.0453,-0.0464,-0.0493,-0.05,-0.0509,-0.0523,-0.0514,-0.0504,-0.0456,-0.0413,-0.0395,-0.0277,-0.0156,-0.0035,0.0118,0.0172,0.0279,0.0314,0.0266,0.0273,0.0286,0.0278,0.0362,0.0362,0.0362,0.0362,0.0362,0,-0.0467,-0.0491,-0.053,-0.0557,-0.057,-0.0587,-0.0595,-0.0554,-0.053,-0.0433,-0.0406,-0.0285,-0.0197,0.0005,0.0122,0.0279,0.0301,0.0342,0.0325,0.0293,0.0297,0.0289,0.0282,0.0362,0.0362,0.0362,0.0362,0,-0.0493,-0.0517,-0.0544,-0.061,-0.064,-0.0654,-0.0653,-0.0638,-0.0566,-0.0528,-0.0396,-0.0278,-0.0141,0.0013,0.0133,0.0246,0.0305,0.0343,0.0343,0.0327,0.0294,0.0296,0.0289,0.0362,0.0362,0.0362,0.0362,0,-0.0509,-0.0545,-0.0598,-0.0651,-0.0692,-0.0699,-0.0693,-0.0638,-0.06,-0.0476,-0.0431,-0.027,-0.0166,-0.0003,0.011,0.0213,0.0235,0.0254,0.026,0.0261,0.0204,0.0145,0.0189,0,0,0,0,0,-0.0511,-0.0568,-0.0631,-0.0684,-0.0723,-0.074,-0.0718,-0.0692,-0.0622,-0.0531,-0.0471,-0.0333,-0.0138,-0.0047,0.0055,0.0084,0.0227,0.0201,0.0245,0.0362,0.0362,0.0309,0,0,0,0,0,0,-0.0515,-0.0587,-0.0637,-0.07,-0.0736,-0.0762,-0.0745,-0.0695,-0.0624,-0.0539,-0.0426,-0.034,-0.0149,-0.0201,0.0045,0.0078,0.0113,0.0302,0.0303,0.0362,0.0362,0.0362,0.0308,0,0,0,0,0]}]]